#timestamp,LO_Frequency,Hit,StdDev 
1644512415.8,286047030.2,N
1644512435.6,286047041.8,N
1644512455.5,286047037.5,N
1644512475.3,286047041.5,N
1644512495.1,286047038.6,N
1644512515.9,286047040.2,N
1644512535.7,286047043.8,N
1644512555.6,286047049.5,N
1644512575.4,286047056.0,N
1644512595.2,286047052.9,N
1644512615.1,286047052.3,N
1644512616.0,286047052.3,N
1644512635.8,286047053.1,N
1644512655.6,286047057.4,N
1644512675.5,286047058.8,N
1644512695.3,286047055.5,N
1644512715.2,286047058.6,N
1644512735.9,286047054.8,N
1644512755.7,286047057.8,N
1644512775.6,286047059.7,Y
1644512795.4,286047015.3,P
1644512815.2,286047011.2,N
1644512835.1,286047012.6,N
1644512836.0,286047012.6,N
1644512855.8,286047013.8,N
1644512875.7,286047005.8,N
1644512895.5,286047003.4,N
1644512915.3,286047003.4,N
1644512935.2,286047004.4,N
1644512955.0,286047011.8,N
1644512955.9,286047011.8,N
1644512975.7,286047018.4,N
1644512995.6,286047018.5,N
1644513015.4,286047014.6,N
1644513035.3,286047015.0,N
1644513055.1,286047011.3,N
1644513056.0,286047011.3,N
1644513075.8,286047013.2,N
1644513095.7,286047016.6,N
1644513115.5,286047018.2,N
1644513135.3,286047011.3,N
1644513155.2,286047011.7,N
1644513175.0,286047013.5,N
1644513175.9,286047013.5,N
1644513195.8,286047016.0,N
1644513215.6,286047016.5,N
1644513235.4,286047017.2,N
1644513255.3,286047015.6,N
1644513275.1,286047014.1,N
1644513295.8,286047015.5,N
1644513315.7,286047014.6,Y
1644513335.5,286047003.5,P
1644513355.4,286047007.4,N
1644513375.2,286047009.3,N
1644513395.0,286047006.1,N
1644513395.9,286047006.1,N
1644513415.8,286047004.7,N
1644513435.6,286046999.7,N
1644513455.4,286046998.9,N
1644513475.3,286047001.0,N
1644513495.1,286047000.0,N
1644513515.9,286046999.7,N
1644513535.7,286047000.1,N
1644513555.5,286047002.2,N
1644513575.4,286046999.1,N
1644513595.2,286046995.6,N
1644513615.0,286046997.8,N
1644513615.9,286046997.8,N
1644513635.8,286046994.0,N
1644513655.6,286046997.2,N
1644513675.5,286046999.3,N
1644513695.3,286047001.0,N
1644513715.1,286046997.0,N
1644513735.9,286046990.3,N
1644513755.7,286046987.1,N
1644513775.5,286046989.8,N
1644513795.4,286046987.6,N
1644513815.2,286046984.9,N
1644513835.1,286046985.6,N
1644513836.0,286046985.6,N
1644513855.8,286046991.0,N
1644513875.6,286046990.3,N
1644513895.5,286046986.9,N
1644513915.3,286046985.0,N
1644513935.1,286046984.9,N
1644513955.9,286046980.5,Y
1644513975.7,286046987.0,P
1644513995.6,286046991.5,N
1644514015.4,286046990.4,P
1644514035.2,286046990.5,Y
1644514055.1,286046996.9,P
1644514056.0,286046996.9,N
1644514075.8,286046994.9,N
1644514095.7,286046997.9,N
1644514115.5,286046999.0,N
1644514135.3,286046995.2,N
1644514155.2,286046991.8,Y
1644514175.0,286046997.1,P
1644514175.9,286046997.1,P
1644514195.7,286046997.8,P
1644514215.6,286046998.8,N
1644514235.4,286047001.5,N
1644514255.3,286047007.8,Y
1644514275.1,286047010.8,P
1644514276.0,286047010.8,N
1644514295.8,286047010.2,N
1644514315.7,286047008.2,N
1644514335.5,286047005.1,N
1644514355.3,286047004.9,N
1644514375.2,286047004.3,N
1644514395.0,286047000.2,N
1644514395.9,286047000.2,N
1644514415.8,286047004.4,N
1644514435.6,286047005.5,N
1644514455.4,286047005.5,N
1644514475.3,286047000.4,N
1644514495.1,286046997.4,N
1644514515.8,286046998.3,N
1644514535.7,286046993.8,N
1644514555.5,286046996.8,N
1644514575.4,286046995.4,N
1644514595.2,286046990.6,N
1644514615.0,286046991.6,N
1644514615.9,286046991.6,N
1644514635.8,286046992.3,N
1644514655.6,286046993.6,N
1644514675.4,286046993.9,N
1644514695.3,286046995.6,N
1644514715.1,286047004.3,N
1644514735.9,286046998.8,N
1644514755.7,286046999.3,N
1644514775.5,286046997.8,N
1644514795.4,286046995.9,N
1644514815.2,286046991.7,N
1644514835.0,286046996.5,N
1644514835.9,286046996.5,N
1644514855.8,286046999.9,N
1644514875.6,286046998.6,N
1644514895.5,286047000.6,N
1644514915.3,286046997.7,N
1644514935.1,286046993.8,N
1644514955.9,286046988.6,N
1644514975.7,286046991.4,N
1644515025.6,286046992.3,E
1644515035.5,286046993.0,N
1644515055.3,286046996.6,P
1644515075.2,286046996.4,N
1644515095.0,286046992.6,Y
1644515095.9,286046992.6,P
1644515115.8,286047000.2,N
1644515135.6,286047002.5,N
1644515155.4,286047002.6,N
1644515175.3,286047001.5,N
1644515195.1,286046998.8,N
1644515215.8,286047000.5,N
1644515235.7,286047001.6,N
1644515255.5,286047000.6,N
1644515275.4,286047002.1,N
1644515295.2,286047006.2,N
1644515315.0,286047018.1,Y
1644515315.9,286047018.1,P
1644515335.8,286047017.6,N
1644515355.6,286047020.6,N
1644515375.5,286047024.5,Y
1644515395.3,286047011.1,P
1644515415.1,286047008.6,P
1644515435.9,286047007.7,P
1644515455.7,286047012.5,Y
1644515475.5,286047003.8,P
1644515495.4,286047010.7,P
1644515515.2,286047015.1,P
1644515535.1,286047017.9,Y
1644515536.0,286047017.9,P
1644515555.8,286047001.8,N
1644515575.6,286047005.8,N
1644515595.5,286047012.3,N
1644515615.3,286047009.0,N
1644515635.1,286047006.5,N
1644515655.9,286047010.1,N
1644515675.7,286047010.0,N
1644515695.6,286047011.4,N
1644515715.4,286047012.6,Y
1644515735.2,286047003.0,P
1644515755.1,286047006.9,N
1644515786.0,286047004.2,E
1644515795.0,286047002.3,N
1644515795.9,286047002.3,P
1644515815.8,286047002.1,P
1644515835.6,286047001.6,Y
1644515855.4,286047005.6,P
1644515875.3,286047005.5,P
1644515895.1,286047002.2,N
1644515915.9,286047000.5,N
1644515935.7,286047000.9,N
1644515955.5,286046999.4,N
1644515975.4,286047000.6,N
1644515995.2,286047000.9,N
